Volver al catálogo

STARLINK-5721

ActivoComunicacionesVLEO
NORAD 55617·PAYLOAD·🇺🇸 United States

Lanzado Feb 12, 2023 desde Cape Canaveral Space Force Station

Loading…

Próximos Pases (próximas 24 horas)

TLE

ActualizadoSource: CelesTrak SupGP

Época: Sep 14, 2026, 20:29 UTC

1 55617C 23020BA  26257.85395833  .00015412  00000+0  55817-3 0  2575
2 55617  43.0015   5.6658 0001384 270.7580  53.9132 15.27573364    11

Sigue STARLINK-5721 en tiempo real con AllMySat

Download on the App Store